Location: Newark
(45.6000°N, 12.8833°E)
Time: 17:37:15
(UTC+00:00)

Envisat - Pass Details

Date: 26 October 2019
Orbit: 764 x 766 km, 98.1° (Epoch: 13 November)

Event Time Altitude Azimuth Distance (km) Brightness Sun altitude
Rises 17:06:10 0° 165° (SSE) 3,219 6.1 -11.3°
Reaches altitude 10° 17:08:28 10° 166° (SSE) 2,297 5.4 -11.7°
Maximum altitude 17:13:33 88° 257° (WSW) 773 3.0 -12.6°
Drops below altitude 10° 17:18:39 10° 346° (NNW) 2,313 5.6 -13.5°
Sets 17:20:58 0° 347° (NNW) 3,243 6.4 -13.9°
